User: anonymous   Login
Location: Balagbag Mahabang Kahoy
(14.1562°N, 120.9200°E)
Time: 11:33:18
(UTC+00:00)
Language:

Cosmos 1408 Rocket - Orbit

View from above orbital plane
View from above orbital plane
View from above satellite
View from above satellite

Ground track
Ground track

The orbit is defined by the following mean orbital elements,

1 13553U          26065.27797814 +.00000000 +00000-0 +70758-4 0 00005
2 13553  82.5700 144.5903 0019204 315.6120 104.2493 14.86662436    00
Epoch (UTC): 06 March 2026 06:40:17
Eccentricity: 0.0019204
inclination: 82.5700°
perigee height: 595 km
apogee height: 622 km
right ascension of ascending node: 144.5903°
argument of perigee: 315.6120°
revolutions per day: 14.86662436
mean anomaly at epoch: 104.2493°

The dashed part of the orbit path shows where the satellite is in the earth's shadow,  

DLR